Location: Unspecified
(44.4377°N, 88.0525°W)
Time: 19:28:51
(UTC-05:00)

Resurs 1-4 Rocket - Visible Passes

Search period start: 02 August 2015 00:00
Search period end: 12 August 2015 00:00
Orbit: 800 x 815 km, 98.4° (Epoch: 01 August)

Date Brightness Start Highest point End Pass type
(mag) Time Alt. Az. Time Alt. Az. Time Alt. Az.
02 Aug 4.6 02:55:26 10° ENE 02:57:55 14° E 03:00:41 10° ESE visible
02 Aug 2.1 04:33:15 10° N 04:38:32 79° WNW 04:43:47 10° SSW visible
03 Aug 2.5 04:08:47 10° NNE 04:14:01 64° E 04:19:14 10° S visible
04 Aug 3.3 03:44:31 10° NNE 03:49:25 39° E 03:54:19 10° SSE visible
05 Aug 4.0 03:20:32 10° NE 03:24:41 24° E 03:28:57 10° SSE visible
05 Aug 2.5 04:59:48 10° N 05:04:50 47° WNW 05:09:49 10° SW visible
06 Aug 4.5 02:57:08 10° NE 02:59:50 15° E 03:02:48 10° ESE visible
06 Aug 2.1 04:35:09 10° N 04:40:25 76° WNW 04:45:39 10° SSW visible
07 Aug 2.4 04:10:40 10° NNE 04:15:54 67° E 04:21:08 10° S visible
08 Aug 3.2 03:46:22 10° NNE 03:51:18 41° E 03:56:16 10° SSE visible
09 Aug 4.0 03:22:20 10° NE 03:26:35 25° E 03:30:56 10° SSE visible
09 Aug 2.6 05:01:42 10° N 05:06:42 45° WNW 05:11:39 10° SW visible
10 Aug 4.5 02:58:52 10° NE 03:01:46 15° E 03:04:54 10° SE visible
10 Aug 2.1 04:37:02 10° N 04:42:17 72° WNW 04:47:31 10° SSW visible
11 Aug 2.3 04:12:32 10° NNE 04:17:48 71° ESE 04:23:02 10° S visible
